Hourly Data Report for September 08, 2018

SHEARWATER RCS
NOVA SCOTIA
Current Station Operator: ECCC - MSC

44°37'47.000" N
63°30'48.000" W
24.00 m
8205092
71264
AAW

Download Data

Hourly Data (September 2018)
Hourly Data Report for September 8, 2018
TIME Temp Definition
°C
Dew Point Definition
°C
Rel Hum Definition
%
Wind Dir Definition
10's deg

Wind Spd Definition
km/h
Visibility Definition
km
Stn Press Definition
kPa
Hmdx Definition


Wind Chill Definition


Weather Definition


00:00 15.8 12.4 80 35 9   101.41     LegendNANA
01:00 14.3 9.7 74 33 5   101.38     LegendNANA
02:00 12.7 8.9 78 32 6   101.33     LegendNANA
03:00 12.3 7.5 73 31 8   101.29     LegendNANA
04:00 11.7 7.5 76 30 6   101.26     LegendNANA
05:00 12.0 7.0 72 32 6   101.22     LegendNANA
06:00 11.8 7.6 75 31 7   101.23     LegendNANA
07:00 13.4 8.2 71 31 12   101.27     LegendNANA
08:00 14.9 10.2 73 32 16   101.29     LegendNANA
09:00 16.6 10.4 67 34 15   101.32     LegendNANA
10:00 18.2 10.2 60 36 18   101.32     LegendNANA
11:00 19.9 9.5 51 34 17   101.32     LegendNANA
12:00 20.0 9.6 51 34 18   101.35     LegendNANA
13:00 18.2 7.8 50 31 20   101.35     LegendNANA
14:00 18.8 8.3 51 31 11   101.34     LegendNANA
15:00 19.5 3.1 34 32 22   101.34     LegendNANA
16:00 18.7 0.1 28 32 21   101.39     LegendNANA
17:00 18.1 1.1 32 32 16   101.45     LegendNANA
18:00 17.0 1.7 36 33 16   101.51     LegendNANA
19:00 15.1 3.9 47 2 12   101.59     LegendNANA
20:00 13.5 4.1 53 1 10   101.71     LegendNANA
21:00 12.4 4.6 59 1 8   101.75     LegendNANA
22:00 11.8 4.5 61 1 7   101.80     LegendNANA
23:00 10.9 4.7 66 35 5   101.84     LegendNANA

Notes on Data Quality.

Legend

  • E = Estimated
  • M = Missing
  • NA = Not Available*
  • [empty] = Indicates an unobserved value
Date modified: